| time (UTC) | temp F | wind direction | speed MPH | gust MPH | rain 1hr in | rain 24hr in | rain mn in | humidity % | barometer mb |
| 20260510082211 | 71 | 210 | 2.0 | 3.0 | 0.00 | 0.00 | 0.00 | 81 | 1012.2 |
| 20260510081710 | 71 | 202 | 4.0 | 6.0 | 0.00 | 0.00 | 0.00 | 80 | 1012.2 |
| 20260510081207 | 71 | 186 | 3.0 | 6.0 | 0.00 | 0.00 | 0.00 | 80 | 1012.1 |
| 20260510080707 | 72 | 198 | 5.0 | 7.0 | 0.00 | 0.00 | 0.00 | 79 | 1011.9 |
| 20260510080203 | 72 | 207 | 4.0 | 6.0 | 0.00 | 0.00 | 0.00 | 79 | 1012.1 |
| 20260510075700 | 72 | 200 | 4.0 | 6.0 | 0.00 | 0.00 | 0.00 | 79 | 1011.9 |
| 20260510075158 | 72 | 172 | 7.0 | 8.0 | 0.00 | 0.00 | 0.00 | 78 | 1011.8 |
| 20260510074655 | 72 | 164 | 6.0 | 9.0 | 0.00 | 0.00 | 0.00 | 78 | 1011.9 |
| 20260510074150 | 72 | 164 | 4.0 | 9.0 | 0.00 | 0.00 | 0.00 | 78 | 1011.9 |
| 20260510073647 | 72 | 187 | 5.0 | 8.0 | 0.00 | 0.00 | 0.00 | 78 | 1012.0 |
| 20260510073143 | 73 | 198 | 4.0 | 9.0 | 0.00 | 0.00 | 0.00 | 77 | 1012.0 |
| 20260510072639 | 73 | 218 | 3.0 | 10.0 | 0.00 | 0.00 | 0.00 | 77 | 1012.0 |
| 20260510072136 | 73 | 193 | 6.0 | 9.0 | 0.00 | 0.00 | 0.00 | 77 | 1012.2 |
| 20260510071631 | 73 | 181 | 5.0 | 10.0 | 0.00 | 0.00 | 0.00 | 77 | 1012.2 |
| 20260510071130 | 73 | 166 | 3.0 | 7.0 | 0.00 | 0.00 | 0.00 | 77 | 1012.3 |
| 20260510070627 | 73 | 179 | 5.0 | 8.0 | 0.00 | 0.00 | 0.00 | 76 | 1012.3 |
| 20260510070124 | 73 | 143 | 4.0 | 9.0 | 0.00 | 0.00 | 0.00 | 76 | 1012.3 |
| 20260510065620 | 73 | 192 | 6.0 | 9.0 | 0.00 | 0.00 | 0.00 | 76 | 1012.4 |
| 20260510065116 | 73 | 170 | 6.0 | 8.0 | 0.00 | 0.00 | 0.00 | 76 | 1012.2 |
| 20260510064612 | 73 | 225 | 2.0 | 10.0 | 0.00 | 0.00 | 0.00 | 76 | 1012.2 |
| 20260510064109 | 73 | 141 | 4.0 | 6.0 | 0.00 | 0.00 | 0.00 | 77 | 1012.4 |
| 20260510063606 | 73 | 233 | 2.0 | 4.0 | 0.00 | 0.00 | 0.00 | 78 | 1012.4 |
| 20260510063103 | 73 | 183 | 2.0 | 4.0 | 0.00 | 0.00 | 0.00 | 78 | 1012.4 |
| 20260510062559 | 73 | 171 | 2.0 | 3.0 | 0.00 | 0.00 | 0.00 | 78 | 1012.4 |
| 20260510062055 | 73 | 179 | 2.0 | 4.0 | 0.00 | 0.00 | 0.00 | 78 | 1012.5 |
| 20260510061551 | 73 | 211 | 3.0 | 4.0 | 0.00 | 0.00 | 0.00 | 78 | 1012.4 |
| 20260510061048 | 73 | 178 | 3.0 | 6.0 | 0.00 | 0.00 | 0.00 | 77 | 1012.6 |
| 20260510060544 | 73 | 162 | 2.0 | 4.0 | 0.00 | 0.00 | 0.00 | 77 | 1012.5 |
| 20260510060040 | 74 | 170 | 2.0 | 6.0 | 0.00 | 0.00 | 0.00 | 77 | 1012.5 |
| 20260510055536 | 74 | 175 | 3.0 | 7.0 | 0.00 | 0.00 | 0.00 | 77 | 1012.3 |
| 20260510055035 | 74 | 193 | 5.0 | 7.0 | 0.00 | 0.00 | 0.00 | 78 | 1012.3 |
| 20260510054531 | 74 | 190 | 2.0 | 4.0 | 0.00 | 0.00 | 0.00 | 78 | 1012.3 |
| 20260510054026 | 74 | 183 | 2.0 | 7.0 | 0.00 | 0.00 | 0.00 | 79 | 1012.2 |
| 20260510053521 | 74 | 196 | 4.0 | 7.0 | 0.00 | 0.00 | 0.00 | 80 | 1012.1 |
| 20260510053018 | 74 | 203 | 4.0 | 8.0 | 0.00 | 0.00 | 0.00 | 80 | 1012.3 |
| 20260510052514 | 75 | 201 | 4.0 | 7.0 | 0.00 | 0.00 | 0.00 | 81 | 1012.3 |
| 20260510052010 | 75 | 175 | 3.0 | 4.0 | 0.00 | 0.00 | 0.00 | 82 | 1012.3 |
| 20260510051506 | 75 | 171 | 6.0 | 7.0 | 0.00 | 0.00 | 0.00 | 82 | 1012.2 |
| 20260510051002 | 75 | 197 | 3.0 | 6.0 | 0.00 | 0.00 | 0.00 | 82 | 1012.3 |
| 20260510050500 | 75 | 175 | 2.0 | 6.0 | 0.00 | 0.00 | 0.00 | 82 | 1012.1 |
| 20260510045956 | 75 | 161 | 3.0 | 7.0 | 0.00 | 0.00 | 0.00 | 82 | 1012.2 |
| 20260510045454 | 75 | 189 | 2.0 | 7.0 | 0.00 | 0.00 | 0.00 | 82 | 1012.5 |
| 20260510044950 | 75 | 174 | 3.0 | 6.0 | 0.00 | 0.00 | 0.00 | 82 | 1012.2 |
| 20260510044447 | 75 | 210 | 4.0 | 7.0 | 0.00 | 0.00 | 0.00 | 82 | 1012.5 |
| 20260510043944 | 75 | 196 | 4.0 | 4.0 | 0.00 | 0.00 | 0.00 | 82 | 1012.3 |
| 20260510043439 | 75 | 225 | 3.0 | 6.0 | 0.00 | 0.00 | 0.00 | 81 | 1012.5 |
| 20260510042938 | 76 | 179 | 5.0 | 6.0 | 0.00 | 0.00 | 0.00 | 80 | 1012.3 |
| 20260510042434 | 76 | 187 | 1.0 | 6.0 | 0.00 | 0.00 | 0.00 | 79 | 1012.4 |
| 20260510041929 | 76 | 174 | 4.0 | 6.0 | 0.00 | 0.00 | 0.00 | 78 | 1012.4 |
| 20260510041427 | 77 | 171 | 3.0 | 6.0 | 0.00 | 0.00 | 0.00 | 77 | 1012.3 |
| 20260510040925 | 77 | 171 | 4.0 | 6.0 | 0.00 | 0.00 | 0.00 | 76 | 1012.4 |
| 20260510040421 | 77 | 215 | 4.0 | 6.0 | 0.00 | 0.00 | 0.00 | 75 | 1012.4 |
| 20260510035917 | 77 | 179 | 3.0 | 4.0 | 0.00 | 0.00 | 0.00 | 74 | 1012.5 |
| 20260510035414 | 77 | 188 | 3.0 | 3.0 | 0.00 | 0.00 | 0.00 | 74 | 1012.5 |
| 20260510034913 | 77 | 215 | 3.0 | 4.0 | 0.00 | 0.00 | 0.00 | 74 | 1012.3 |
| 20260510034412 | 77 | 174 | 2.0 | 3.0 | 0.00 | 0.00 | 0.00 | 75 | 1012.2 |
| 20260510033908 | 77 | 198 | 1.0 | 1.0 | 0.00 | 0.00 | 0.00 | 75 | 1012.2 |
| 20260510033405 | 77 | 189 | 1.0 | 2.0 | 0.00 | 0.00 | 0.00 | 75 | 1012.1 |
| 20260510032901 | 77 | 194 | 0.0 | 1.0 | 0.00 | 0.00 | 0.00 | 75 | 1012.0 |
| 20260510032358 | 77 | 198 | 1.0 | 1.0 | 0.00 | 0.00 | 0.00 | 75 | 1012.2 |
| 20260510031853 | 77 | 189 | 1.0 | 1.0 | 0.00 | 0.00 | 0.00 | 75 | 1011.9 |
| 20260510031349 | 77 | 198 | 0.0 | 1.0 | 0.00 | 0.00 | 0.00 | 74 | 1012.1 |
| 20260510030849 | 77 | 200 | 1.0 | 1.0 | 0.00 | 0.00 | 0.00 | 75 | 1012.0 |
| 20260510030345 | 77 | 201 | 1.0 | 1.0 | 0.00 | 0.00 | 0.00 | 74 | 1011.8 |
| 20260510025843 | 77 | 200 | 1.0 | 1.0 | 0.00 | 0.00 | 0.00 | 73 | 1011.6 |
| 20260510025340 | 78 | 200 | 0.0 | 1.0 | 0.00 | 0.00 | 0.00 | 73 | 1011.6 |
| 20260510024837 | 78 | 201 | 1.0 | 1.0 | 0.00 | 0.00 | 0.00 | 72 | 1011.5 |
| 20260510024334 | 79 | 200 | 0.0 | 0.0 | 0.00 | 0.00 | 0.00 | 70 | 1011.5 |
| 20260510023830 | 80 | 200 | 0.0 | 1.0 | 0.00 | 0.00 | 0.00 | 69 | 1011.5 |
| 20260510023326 | 80 | 200 | 0.0 | 0.0 | 0.00 | 0.00 | 0.00 | 68 | 1011.4 |
| 20260510022824 | 81 | 199 | 0.0 | 1.0 | 0.00 | 0.00 | 0.00 | 66 | 1011.5 |
| 20260510022323 | 81 | 192 | 2.0 | 3.0 | 0.00 | 0.00 | 0.00 | 66 | 1011.3 |
| 20260510021822 | 81 | 176 | 2.0 | 2.0 | 0.00 | 0.00 | 0.00 | 66 | 1011.3 |
| 20260510021320 | 81 | 201 | 1.0 | 1.0 | 0.00 | 0.00 | 0.00 | 66 | 1011.1 |
| 20260510020816 | 80 | 163 | 2.0 | 2.0 | 0.00 | 0.00 | 0.00 | 66 | 1011.0 |
| 20260510020311 | 81 | 193 | 0.0 | 1.0 | 0.00 | 0.00 | 0.00 | 66 | 1010.9 |
| 20260510015808 | 81 | 195 | 0.0 | 0.0 | 0.00 | 0.00 | 0.00 | 65 | 1011.0 |
| 20260510015306 | 81 | 205 | 0.0 | 1.0 | 0.00 | 0.00 | 0.00 | 65 | 1010.9 |
| 20260510014759 | 82 | 210 | 0.0 | 0.0 | 0.00 | 0.00 | 0.00 | 64 | 1010.7 |
| 20260510014256 | 82 | 210 | 0.0 | 1.0 | 0.00 | 0.00 | 0.00 | 63 | 1010.6 |
| 20260510013752 | 82 | 195 | 2.0 | 2.0 | 0.00 | 0.00 | 0.00 | 63 | 1010.5 |
| 20260510013248 | 82 | 204 | 0.0 | 1.0 | 0.00 | 0.00 | 0.00 | 62 | 1010.6 |
| 20260510012749 | 83 | 194 | 1.0 | 2.0 | 0.00 | 0.00 | 0.00 | 62 | 1010.6 |
| 20260510012243 | 83 | 187 | 1.0 | 2.0 | 0.00 | 0.00 | 0.00 | 61 | 1010.4 |
| 20260510011743 | 83 | 187 | 1.0 | 1.0 | 0.00 | 0.00 | 0.00 | 60 | 1010.4 |
| 20260510011239 | 84 | 199 | 0.0 | 1.0 | 0.00 | 0.00 | 0.00 | 60 | 1010.3 |
| 20260510010736 | 84 | 188 | 0.0 | 1.0 | 0.00 | 0.00 | 0.00 | 59 | 1010.2 |
| 20260510010232 | 85 | 200 | 0.0 | 0.0 | 0.00 | 0.00 | 0.00 | 58 | 1010.3 |
| 20260510005729 | 85 | 199 | 0.0 | 0.0 | 0.00 | 0.00 | 0.00 | 57 | 1010.3 |
| 20260510005226 | 86 | 171 | 0.0 | 2.0 | 0.00 | 0.00 | 0.00 | 56 | 1010.2 |
| 20260510004724 | 86 | 171 | 0.0 | 1.0 | 0.00 | 0.00 | 0.00 | 56 | 1010.1 |
| 20260510004222 | 86 | 206 | 0.0 | 1.0 | 0.00 | 0.00 | 0.00 | 55 | 1010.2 |
| 20260510003719 | 87 | 161 | 2.0 | 3.0 | 0.00 | 0.00 | 0.00 | 54 | 1010.1 |
| 20260510003214 | 87 | 197 | 1.0 | 1.0 | 0.00 | 0.00 | 0.00 | 53 | 1009.9 |
| 20260510002713 | 87 | 126 | 1.0 | 2.0 | 0.00 | 0.00 | 0.00 | 52 | 1009.9 |
| 20260510002212 | 88 | 111 | 3.0 | 7.0 | 0.00 | 0.00 | 0.00 | 51 | 1010.0 |
| 20260510001708 | 88 | 200 | 1.0 | 3.0 | 0.00 | 0.00 | 0.00 | 51 | 1009.9 |
| 20260510001207 | 88 | 184 | 0.0 | 2.0 | 0.00 | 0.00 | 0.00 | 51 | 1009.8 |
| 20260510000707 | 88 | 198 | 0.0 | 0.0 | 0.00 | 0.00 | 0.00 | 50 | 1010.0 |
| 20260510000205 | 88 | 203 | 0.0 | 2.0 | 0.00 | 0.00 | 0.00 | 50 | 1010.0 |
| 20260509235701 | 89 | 72 | 0.0 | 3.0 | 0.00 | 0.00 | 0.00 | 49 | 1009.8 |
| 20260509235158 | 89 | 184 | 2.0 | 2.0 | 0.00 | 0.00 | 0.00 | 49 | 1009.7 |
| 20260509234654 | 89 | 132 | 0.0 | 2.0 | 0.00 | 0.00 | 0.00 | 48 | 1009.6 |
| 20260509234151 | 89 | 188 | 0.0 | 3.0 | 0.00 | 0.00 | 0.00 | 48 | 1009.5 |
| 20260509233649 | 89 | 189 | 2.0 | 3.0 | 0.00 | 0.00 | 0.00 | 47 | 1009.8 |
| 20260509233146 | 89 | 108 | 2.0 | 4.0 | 0.00 | 0.00 | 0.00 | 46 | 1009.8 |
| 20260509232642 | 89 | 196 | 2.0 | 6.0 | 0.00 | 0.00 | 0.00 | 47 | 1009.8 |
| 20260509232139 | 89 | 181 | 1.0 | 2.0 | 0.00 | 0.00 | 0.00 | 48 | 1009.8 |
| 20260509231636 | 90 | 107 | 4.0 | 6.0 | 0.00 | 0.00 | 0.00 | 45 | 1009.6 |
| 20260509231134 | 90 | 54 | 1.0 | 3.0 | 0.00 | 0.00 | 0.00 | 46 | 1009.7 |
| 20260509230631 | 90 | 158 | 0.0 | 3.0 | 0.00 | 0.00 | 0.00 | 46 | 1009.7 |
| 20260509230127 | 90 | 174 | 0.0 | 4.0 | 0.00 | 0.00 | 0.00 | 46 | 1009.7 |
| 20260509225623 | 90 | 96 | 4.0 | 7.0 | 0.00 | 0.00 | 0.00 | 45 | 1009.6 |
| 20260509225119 | 90 | 165 | 0.0 | 4.0 | 0.00 | 0.00 | 0.00 | 46 | 1009.6 |
| 20260509224614 | 91 | 200 | 2.0 | 4.0 | 0.00 | 0.00 | 0.00 | 45 | 1009.7 |
| 20260509224112 | 92 | 91 | 2.0 | 3.0 | 0.00 | 0.00 | 0.00 | 45 | 1009.6 |
| 20260509223609 | 92 | 86 | 2.0 | 4.0 | 0.00 | 0.00 | 0.00 | 45 | 1009.6 |
| 20260509223106 | 92 | 207 | 1.0 | 2.0 | 0.00 | 0.00 | 0.00 | 42 | 1009.6 |
| 20260509222602 | 92 | 209 | 1.0 | 2.0 | 0.00 | 0.00 | 0.00 | 44 | 1009.6 |
| 20260509222058 | 92 | 87 | 4.0 | 7.0 | 0.00 | 0.00 | 0.00 | 43 | 1009.6 |
| 20260509221554 | 92 | 205 | 2.0 | 6.0 | 0.00 | 0.00 | 0.00 | 43 | 1009.5 |
| 20260509221050 | 92 | 0 | 2.0 | 4.0 | 0.00 | 0.00 | 0.00 | 42 | 1009.7 |
| 20260509220546 | 91 | 46 | 2.0 | 6.0 | 0.00 | 0.00 | 0.00 | 42 | 1009.8 |
| 20260509220043 | 93 | 38 | 1.0 | 6.0 | 0.00 | 0.00 | 0.00 | 41 | 1009.8 |
| 20260509215537 | 94 | 160 | 0.0 | 1.0 | 0.00 | 0.00 | 0.00 | 39 | 1009.9 |
| 20260509215035 | 94 | 211 | 1.0 | 3.0 | 0.00 | 0.00 | 0.00 | 39 | 1009.6 |
| 20260509214532 | 94 | 237 | 2.0 | 6.0 | 0.00 | 0.00 | 0.00 | 40 | 1009.8 |
| 20260509214029 | 93 | 207 | 0.0 | 2.0 | 0.00 | 0.00 | 0.00 | 40 | 1009.6 |
| 20260509213525 | 93 | 220 | 2.0 | 3.0 | 0.00 | 0.00 | 0.00 | 40 | 1010.0 |
| 20260509213022 | 94 | 310 | 0.0 | 3.0 | 0.00 | 0.00 | 0.00 | 39 | 1009.9 |
| 20260509212520 | 95 | 126 | 2.0 | 3.0 | 0.00 | 0.00 | 0.00 | 39 | 1009.8 |
| 20260509212016 | 93 | 177 | 1.0 | 2.0 | 0.00 | 0.00 | 0.00 | 39 | 1010.0 |
| 20260509211512 | 93 | 224 | 0.0 | 3.0 | 0.00 | 0.00 | 0.00 | 39 | 1010.1 |
| 20260509211009 | 95 | 84 | 2.0 | 3.0 | 0.00 | 0.00 | 0.00 | 38 | 1010.2 |
| 20260509210506 | 95 | 223 | 1.0 | 2.0 | 0.00 | 0.00 | 0.00 | 38 | 1010.3 |
| 20260509210001 | 96 | 234 | 1.0 | 3.0 | 0.00 | 0.00 | 0.00 | 36 | 1010.2 |
| 20260509205456 | 94 | 249 | 1.0 | 2.0 | 0.00 | 0.00 | 0.00 | 39 | 1010.2 |
| 20260509204952 | 92 | 225 | 1.0 | 2.0 | 0.00 | 0.00 | 0.00 | 39 | 1010.2 |
| 20260509204448 | 92 | 226 | 2.0 | 3.0 | 0.00 | 0.00 | 0.00 | 38 | 1010.5 |
| 20260509203945 | 93 | 49 | 4.0 | 4.0 | 0.00 | 0.00 | 0.00 | 38 | 1010.8 |
| 20260509203441 | 92 | 330 | 2.0 | 3.0 | 0.00 | 0.00 | 0.00 | 39 | 1010.7 |
| 20260509202939 | 94 | 293 | 2.0 | 4.0 | 0.00 | 0.00 | 0.00 | 38 | 1010.6 |
| 20260509202435 | 94 | 312 | 1.0 | 2.0 | 0.00 | 0.00 | 0.00 | 38 | 1010.9 |
| 20260509201930 | 95 | 270 | 0.0 | 2.0 | 0.00 | 0.00 | 0.00 | 38 | 1010.9 |
| 20260509201425 | 94 | 201 | 0.0 | 1.0 | 0.00 | 0.00 | 0.00 | 39 | 1010.8 |
| 20260509200922 | 92 | 256 | 0.0 | 1.0 | 0.00 | 0.00 | 0.00 | 39 | 1011.0 |
| 20260509200422 | 91 | 305 | 2.0 | 3.0 | 0.00 | 0.00 | 0.00 | 40 | 1011.0 |
| 20260509195919 | 92 | 307 | 2.0 | 6.0 | 0.00 | 0.00 | 0.00 | 41 | 1010.9 |
| 20260509195415 | 94 | 0 | 1.0 | 4.0 | 0.00 | 0.00 | 0.00 | 39 | 1011.1 |
| 20260509194914 | 94 | 264 | 1.0 | 2.0 | 0.00 | 0.00 | 0.00 | 38 | 1011.0 |
| 20260509194410 | 93 | 252 | 1.0 | 4.0 | 0.00 | 0.00 | 0.00 | 43 | 1011.2 |
| 20260509193907 | 92 | 314 | 2.0 | 3.0 | 0.00 | 0.00 | 0.00 | 41 | 1011.2 |
| 20260509193407 | 91 | 318 | 1.0 | 4.0 | 0.00 | 0.00 | 0.00 | 43 | 1011.4 |
| 20260509192903 | 92 | 354 | 8.0 | 11.0 | 0.00 | 0.00 | 0.00 | 42 | 1011.3 |
| 20260509192359 | 90 | 354 | 2.0 | 3.0 | 0.00 | 0.00 | 0.00 | 43 | 1011.4 |
| 20260509191855 | 91 | 356 | 5.0 | 7.0 | 0.00 | 0.00 | 0.00 | 41 | 1011.8 |
| 20260509191351 | 90 | 307 | 2.0 | 6.0 | 0.00 | 0.00 | 0.00 | 46 | 1011.6 |
| 20260509190847 | 91 | 314 | 6.0 | 7.0 | 0.00 | 0.00 | 0.00 | 44 | 1011.8 |
| 20260509190344 | 91 | 341 | 1.0 | 4.0 | 0.00 | 0.00 | 0.00 | 44 | 1011.9 |
| 20260509185841 | 91 | 248 | 1.0 | 1.0 | 0.00 | 0.00 | 0.00 | 43 | 1011.8 |
| 20260509185338 | 91 | 315 | 2.0 | 4.0 | 0.00 | 0.00 | 0.00 | 45 | 1011.9 |
| 20260509184835 | 90 | 149 | 2.0 | 3.0 | 0.00 | 0.00 | 0.00 | 44 | 1011.9 |
| 20260509184332 | 89 | 297 | 2.0 | 4.0 | 0.00 | 0.00 | 0.00 | 45 | 1011.9 |
| 20260509183829 | 90 | 352 | 6.0 | 7.0 | 0.00 | 0.00 | 0.00 | 44 | 1012.0 |
| 20260509183324 | 91 | 295 | 4.0 | 4.0 | 0.00 | 0.00 | 0.00 | 44 | 1012.1 |
| 20260509182820 | 89 | 206 | 4.0 | 6.0 | 0.00 | 0.00 | 0.00 | 47 | 1012.1 |
| 20260509182317 | 90 | 4 | 4.0 | 4.0 | 0.00 | 0.00 | 0.00 | 45 | 1012.1 |
| 20260509181814 | 89 | 321 | 1.0 | 3.0 | 0.00 | 0.00 | 0.00 | 46 | 1012.2 |
| 20260509181312 | 89 | 336 | 4.0 | 8.0 | 0.00 | 0.00 | 0.00 | 47 | 1012.5 |
| 20260509180809 | 89 | 320 | 0.0 | 3.0 | 0.00 | 0.00 | 0.00 | 46 | 1012.5 |
| 20260509180305 | 89 | 246 | 1.0 | 3.0 | 0.00 | 0.00 | 0.00 | 49 | 1012.3 |
| 20260509175802 | 89 | 186 | 1.0 | 1.0 | 0.00 | 0.00 | 0.00 | 48 | 1012.6 |
| 20260509175258 | 89 | 180 | 3.0 | 4.0 | 0.00 | 0.00 | 0.00 | 46 | 1012.4 |
| 20260509174754 | 88 | 359 | 1.0 | 2.0 | 0.00 | 0.00 | 0.00 | 46 | 1012.6 |
| 20260509174250 | 88 | 184 | 4.0 | 6.0 | 0.00 | 0.00 | 0.00 | 46 | 1012.7 |
| 20260509173746 | 89 | 189 | 2.0 | 6.0 | 0.00 | 0.00 | 0.00 | 45 | 1012.7 |
| 20260509173241 | 89 | 291 | 3.0 | 4.0 | 0.00 | 0.00 | 0.00 | 45 | 1012.8 |
| 20260509172738 | 88 | 195 | 0.0 | 2.0 | 0.00 | 0.00 | 0.00 | 47 | 1012.8 |
| 20260509172235 | 87 | 7 | 2.0 | 6.0 | 0.00 | 0.00 | 0.00 | 49 | 1013.0 |
| 20260509171730 | 87 | 263 | 2.0 | 2.0 | 0.00 | 0.00 | 0.00 | 49 | 1012.9 |
| 20260509171226 | 87 | 329 | 3.0 | 4.0 | 0.00 | 0.00 | 0.00 | 51 | 1012.8 |
| 20260509170724 | 87 | 213 | 0.0 | 4.0 | 0.00 | 0.00 | 0.00 | 49 | 1013.0 |
| 20260509170219 | 86 | 186 | 0.0 | 1.0 | 0.00 | 0.00 | 0.00 | 54 | 1013.2 |
| 20260509165718 | 87 | 318 | 4.0 | 4.0 | 0.00 | 0.00 | 0.00 | 51 | 1013.1 |
| 20260509165213 | 86 | 114 | 0.0 | 2.0 | 0.00 | 0.00 | 0.00 | 55 | 1013.1 |
| 20260509164709 | 84 | 119 | 1.0 | 3.0 | 0.00 | 0.00 | 0.00 | 59 | 1013.1 |
| 20260509164205 | 84 | 202 | 4.0 | 6.0 | 0.00 | 0.00 | 0.00 | 58 | 1013.2 |
| 20260509163703 | 85 | 168 | 2.0 | 2.0 | 0.00 | 0.00 | 0.00 | 55 | 1013.3 |
| 20260509163159 | 85 | 331 | 3.0 | 4.0 | 0.00 | 0.00 | 0.00 | 56 | 1013.2 |
| 20260509162657 | 85 | 332 | 3.0 | 6.0 | 0.00 | 0.00 | 0.00 | 57 | 1013.2 |
| 20260509162152 | 85 | 329 | 3.0 | 6.0 | 0.00 | 0.00 | 0.00 | 58 | 1013.3 |
| 20260509161648 | 85 | 251 | 1.0 | 3.0 | 0.00 | 0.00 | 0.00 | 60 | 1013.0 |
| 20260509161144 | 84 | 264 | 1.0 | 2.0 | 0.00 | 0.00 | 0.00 | 62 | 1013.0 |
| 20260509160640 | 83 | 349 | 2.0 | 3.0 | 0.00 | 0.00 | 0.00 | 63 | 1013.1 |
| 20260509160135 | 83 | 287 | 3.0 | 4.0 | 0.00 | 0.00 | 0.00 | 63 | 1013.2 |
| 20260509155632 | 83 | 280 | 4.0 | 4.0 | 0.00 | 0.00 | 0.00 | 64 | 1013.3 |
| 20260509155128 | 82 | 97 | 1.0 | 2.0 | 0.00 | 0.00 | 0.00 | 66 | 1013.4 |
| 20260509154624 | 81 | 13 | 3.0 | 4.0 | 0.00 | 0.00 | 0.00 | 68 | 1013.2 |
| 20260509154121 | 82 | 322 | 2.0 | 3.0 | 0.00 | 0.00 | 0.00 | 69 | 1013.3 |
| 20260509153618 | 81 | 329 | 2.0 | 2.0 | 0.00 | 0.00 | 0.00 | 71 | 1013.2 |
| 20260509153115 | 81 | 191 | 0.0 | 2.0 | 0.00 | 0.00 | 0.00 | 71 | 1013.1 |
| 20260509152611 | 80 | 318 | 3.0 | 4.0 | 0.00 | 0.00 | 0.00 | 73 | 1013.3 |
| 20260509152108 | 80 | 17 | 6.0 | 9.0 | 0.00 | 0.00 | 0.00 | 73 | 1013.2 |
| 20260509151604 | 79 | 347 | 1.0 | 3.0 | 0.00 | 0.00 | 0.00 | 75 | 1013.2 |
| 20260509151102 | 79 | 318 | 3.0 | 8.0 | 0.00 | 0.00 | 0.00 | 74 | 1013.0 |
| 20260509150559 | 78 | 345 | 2.0 | 6.0 | 0.00 | 0.00 | 0.00 | 77 | 1013.2 |
| 20260509150058 | 78 | 307 | 3.0 | 6.0 | 0.00 | 0.00 | 0.00 | 76 | 1013.0 |
| 20260509145553 | 78 | 351 | 3.0 | 7.0 | 0.00 | 0.00 | 0.00 | 76 | 1013.1 |
| 20260509145049 | 79 | 338 | 5.0 | 9.0 | 0.00 | 0.00 | 0.00 | 75 | 1013.0 |
| 20260509144546 | 79 | 343 | 6.0 | 8.0 | 0.00 | 0.00 | 0.00 | 75 | 1013.1 |
| 20260509144043 | 78 | 340 | 4.0 | 4.0 | 0.00 | 0.00 | 0.00 | 75 | 1012.9 |
| 20260509143540 | 79 | 343 | 4.0 | 4.0 | 0.00 | 0.00 | 0.00 | 76 | 1013.0 |
| 20260509143038 | 78 | 284 | 2.0 | 3.0 | 0.00 | 0.00 | 0.00 | 76 | 1012.7 |
| 20260509142533 | 78 | 225 | 2.0 | 6.0 | 0.00 | 0.00 | 0.00 | 76 | 1012.9 |
| 20260509142029 | 77 | 342 | 1.0 | 4.0 | 0.00 | 0.00 | 0.00 | 77 | 1012.9 |
| 20260509141525 | 77 | 283 | 2.0 | 3.0 | 0.00 | 0.00 | 0.00 | 78 | 1012.8 |
| 20260509141022 | 77 | 268 | 1.0 | 3.0 | 0.00 | 0.00 | 0.00 | 80 | 1013.1 |
| 20260509140519 | 76 | 350 | 1.0 | 2.0 | 0.00 | 0.00 | 0.00 | 81 | 1012.9 |
| 20260509140017 | 76 | 337 | 4.0 | 8.0 | 0.00 | 0.00 | 0.00 | 83 | 1013.0 |
| 20260509135513 | 76 | 357 | 8.0 | 10.0 | 0.00 | 0.00 | 0.00 | 81 | 1013.1 |
| 20260509135011 | 77 | 339 | 4.0 | 7.0 | 0.00 | 0.00 | 0.00 | 78 | 1013.0 |
| 20260509134508 | 77 | 195 | 3.0 | 7.0 | 0.00 | 0.00 | 0.00 | 79 | 1013.0 |
| 20260509134006 | 77 | 329 | 1.0 | 2.0 | 0.00 | 0.00 | 0.00 | 81 | 1012.7 |
| 20260509133502 | 75 | 321 | 2.0 | 3.0 | 0.00 | 0.00 | 0.00 | 84 | 1012.8 |
| 20260509133000 | 75 | 207 | 2.0 | 3.0 | 0.00 | 0.00 | 0.00 | 87 | 1012.6 |
| 20260509132458 | 74 | 358 | 4.0 | 4.0 | 0.00 | 0.00 | 0.00 | 89 | 1012.4 |
| 20260509131955 | 73 | 251 | 1.0 | 3.0 | 0.00 | 0.00 | 0.00 | 92 | 1012.5 |
| 20260509131452 | 73 | 271 | 1.0 | 2.0 | 0.00 | 0.00 | 0.00 | 94 | 1012.2 |
| 20260509130948 | 72 | 178 | 3.0 | 4.0 | 0.00 | 0.00 | 0.00 | 95 | 1012.0 |
| 20260509130444 | 72 | 334 | 4.0 | 6.0 | 0.00 | 0.00 | 0.00 | 96 | 1012.4 |
| 20260509125941 | 71 | 255 | 1.0 | 3.0 | 0.00 | 0.00 | 0.00 | 96 | 1012.1 |
| 20260509125438 | 71 | 337 | 4.0 | 4.0 | 0.00 | 0.00 | 0.00 | 96 | 1012.3 |
| 20260509124934 | 71 | 292 | 1.0 | 6.0 | 0.00 | 0.00 | 0.00 | 96 | 1012.2 |
| 20260509124431 | 71 | 264 | 1.0 | 2.0 | 0.00 | 0.00 | 0.00 | 96 | 1012.1 |
| 20260509123928 | 71 | 246 | 0.0 | 2.0 | 0.00 | 0.00 | 0.00 | 96 | 1011.9 |
| 20260509123426 | 71 | 281 | 2.0 | 2.0 | 0.00 | 0.00 | 0.00 | 96 | 1011.8 |
| 20260509122921 | 71 | 214 | 2.0 | 6.0 | 0.00 | 0.00 | 0.00 | 96 | 1011.0 |
| 20260509122419 | 71 | 208 | 7.0 | 10.0 | 0.00 | 0.00 | 0.00 | 96 | 1010.7 |
| 20260509121915 | 71 | 188 | 3.0 | 8.0 | 0.00 | 0.00 | 0.00 | 96 | 1010.6 |
| 20260509121413 | 71 | 165 | 1.0 | 7.0 | 0.00 | 0.00 | 0.00 | 96 | 1010.3 |
| 20260509120911 | 70 | 167 | 4.0 | 8.0 | 0.00 | 0.00 | 0.00 | 96 | 1010.3 |
| 20260509120408 | 70 | 211 | 9.0 | 10.0 | 0.00 | 0.00 | 0.00 | 96 | 1010.6 |
| 20260509115906 | 70 | 175 | 9.0 | 11.0 | 0.00 | 0.00 | 0.00 | 96 | 1010.6 |
| 20260509115403 | 70 | 219 | 2.0 | 4.0 | 0.00 | 0.00 | 0.00 | 96 | 1010.7 |
| 20260509114901 | 70 | 197 | 4.0 | 7.0 | 0.00 | 0.00 | 0.00 | 96 | 1010.6 |
| 20260509114359 | 70 | 191 | 6.0 | 8.0 | 0.00 | 0.00 | 0.00 | 96 | 1010.7 |
| 20260509113858 | 70 | 169 | 6.0 | 11.0 | 0.00 | 0.00 | 0.00 | 96 | 1010.9 |
| 20260509113355 | 70 | 189 | 7.0 | 13.0 | 0.00 | 0.00 | 0.00 | 96 | 1010.9 |
| 20260509112851 | 70 | 205 | 7.0 | 11.0 | 0.00 | 0.00 | 0.00 | 96 | 1011.2 |
| 20260509112348 | 70 | 196 | 8.0 | 10.0 | 0.00 | 0.00 | 0.00 | 96 | 1011.2 |
| 20260509111846 | 70 | 179 | 6.0 | 11.0 | 0.00 | 0.00 | 0.00 | 96 | 1011.1 |
| 20260509111342 | 70 | 182 | 8.0 | 11.0 | 0.00 | 0.00 | 0.00 | 95 | 1011.2 |
| 20260509110840 | 71 | 223 | 6.0 | 10.0 | 0.00 | 0.00 | 0.00 | 95 | 1011.3 |
| 20260509110336 | 71 | 186 | 9.0 | 10.0 | 0.00 | 0.00 | 0.00 | 95 | 1011.6 |
| 20260509105835 | 71 | 192 | 5.0 | 8.0 | 0.00 | 0.00 | 0.00 | 95 | 1011.9 |
| 20260509105332 | 71 | 247 | 4.0 | 7.0 | 0.00 | 0.00 | 0.00 | 95 | 1012.0 |
| 20260509104829 | 71 | 206 | 6.0 | 9.0 | 0.00 | 0.00 | 0.00 | 95 | 1012.0 |
| 20260509104325 | 71 | 187 | 5.0 | 7.0 | 0.00 | 0.00 | 0.00 | 95 | 1012.0 |
| 20260509103823 | 71 | 227 | 4.0 | 6.0 | 0.00 | 0.00 | 0.00 | 95 | 1012.2 |
| 20260509103320 | 71 | 231 | 3.0 | 7.0 | 0.00 | 0.00 | 0.00 | 95 | 1012.3 |
| 20260509102820 | 71 | 211 | 1.0 | 3.0 | 0.00 | 0.00 | 0.00 | 95 | 1012.3 |
| 20260509102316 | 71 | 223 | 2.0 | 6.0 | 0.00 | 0.00 | 0.00 | 95 | 1012.4 |
| 20260509101812 | 71 | 185 | 3.0 | 4.0 | 0.00 | 0.00 | 0.00 | 95 | 1012.3 |
| 20260509101308 | 71 | 213 | 1.0 | 2.0 | 0.00 | 0.00 | 0.00 | 95 | 1012.4 |
| 20260509100806 | 71 | 211 | 2.0 | 3.0 | 0.00 | 0.00 | 0.00 | 95 | 1012.5 |
| 20260509100303 | 70 | 219 | 0.0 | 1.0 | 0.00 | 0.00 | 0.00 | 95 | 1012.5 |
| 20260509095759 | 70 | 217 | 2.0 | 3.0 | 0.00 | 0.00 | 0.00 | 95 | 1012.6 |
| 20260509095257 | 70 | 196 | 1.0 | 1.0 | 0.00 | 0.00 | 0.00 | 95 | 1012.6 |
| 20260509094754 | 70 | 235 | 1.0 | 1.0 | 0.00 | 0.00 | 0.00 | 95 | 1012.8 |
| 20260509094250 | 70 | 224 | 1.0 | 1.0 | 0.00 | 0.00 | 0.00 | 95 | 1012.8 |
| 20260509093748 | 70 | 245 | 0.0 | 0.0 | 0.00 | 0.00 | 0.00 | 95 | 1012.8 |
| 20260509093245 | 70 | 226 | 0.0 | 1.0 | 0.00 | 0.00 | 0.00 | 95 | 1012.8 |
| 20260509092744 | 70 | 212 | 0.0 | 0.0 | 0.00 | 0.00 | 0.00 | 95 | 1012.8 |
| 20260509092241 | 70 | 219 | 0.0 | 1.0 | 0.00 | 0.00 | 0.00 | 95 | 1012.8 |
| 20260509091739 | 70 | 235 | 0.0 | 0.0 | 0.00 | 0.00 | 0.00 | 95 | 1012.8 |
| 20260509091235 | 70 | 242 | 0.0 | 1.0 | 0.00 | 0.00 | 0.00 | 95 | 1012.9 |
| 20260509090733 | 70 | 224 | 1.0 | 2.0 | 0.00 | 0.00 | 0.00 | 95 | 1012.9 |
| 20260509090229 | 70 | 213 | 0.0 | 1.0 | 0.00 | 0.00 | 0.00 | 95 | 1012.9 |
| 20260509085728 | 70 | 175 | 0.0 | 0.0 | 0.00 | 0.00 | 0.00 | 95 | 1013.0 |
| 20260509085225 | 70 | 300 | 0.0 | 0.0 | 0.00 | 0.00 | 0.00 | 95 | 1013.0 |
| 20260509084721 | 70 | 297 | 0.0 | 1.0 | 0.00 | 0.00 | 0.00 | 95 | 1013.1 |
| 20260509084218 | 70 | 196 | 1.0 | 1.0 | 0.00 | 0.00 | 0.00 | 95 | 1013.1 |
| 20260509083716 | 70 | 314 | 1.0 | 2.0 | 0.00 | 0.00 | 0.00 | 95 | 1013.2 |
| 20260509083212 | 70 | 275 | 0.0 | 1.0 | 0.00 | 0.00 | 0.00 | 95 | 1013.4 |
| 20260509082709 | 70 | 340 | 2.0 | 3.0 | 0.00 | 0.00 | 0.00 | 95 | 1013.6 |